"Pseudo-MPEC" for CEFXDG2

Created 2026 Apr 15 18:35:07 UT using Find_Orb

Click here for an explanation of pseudo-MPECs

 
 Astrometry: 
     CEFXDG2*1C2026 03 28.41419613 35 43.033+12 44 25.84   ~3SAZ 20.78GVNEOCPG96
     CEFXDG2 1C2026 03 28.41981413 35 42.295+12 44 26.30   ~3SAZ 21.96GVNEOCPG96
     CEFXDG2 1C2026 03 28.42543713 35 41.629+12 44 28.50   ~3SAZ 21.94GVNEOCPG96
     CEFXDG2 1C2026 03 28.43106413 35 40.862+12 44 29.76   ~3SAZ 22.01GVNEOCPG96

Station data:
(G96) Mt. Lemmon Survey  (N32.442729 W110.788720)  US/Arizona.  Observer E.
   J. Christensen. Measurers T. Beuden, V. F. Carvajal, D. Fay, J. B.
   Fazekas, D. C. Fuls, A. R. Gibbs, A. D. Grauer, H. Gröller, J. K. Hogan,
   R. A. Kowalski, S. M. Larson, G. J. Leonard, D. Rankin, R. L. Seaman, F.
   C. Shelly, K. W. Wierzchoś. 1.5-m reflector + 10K CCD.

Orbital elements:  CEFXDG2
   Perihelion 2025 Nov 30.263147 +/- 210 TT =  6:18:55.9 (JD 2461009.763147)
Epoch 2026 Mar 28.0 TT = JDT 2461127.5   Earth MOID: 0.2301   Ju: 0.2943
M  13.220132775 +/- 80              Ve: 0.0868                   AutoNEOCP
n   0.112285426 +/- 0.182           Peri.    4.153614 +/- 56
a   4.255204665 +/- 4.6             Node    65.309179 +/- 42
e   0.86173229 +/- 0.237            Incl.   13.546525 +/- 42
P   8.77770                H 19.61  G  0.15   U 11.6  SR
q 0.588357388 +/- 0.735    Q 7.922051943 +/- 17           (J2000 ecliptic)
From 4 observations 2026 Mar. 28 (24.3 min); mean residual 0".33
Residuals in arcseconds: 
260328 G96  .02+  .33+    260328 G96  .48+  .20+    
260328 G96  .28-  .60-    260328 G96  .23-  .06+    

Ephemerides (geocentric):
Date (UTC) HH   RA             Dec           delta  r     elong  mag " sig PA
---- --------  ------------   ------------  ------ ------ -----  --- --------
2026 04 15 19  13 02 15.941   +13 04 22.61  1.2783 2.2315 155.7 22.6  37d  99
2026 04 15 20  13 02 12.214   +13 04 18.17  1.2789 2.2320 155.7 22.6  37d  99
2026 04 15 21  13 02 08.491   +13 04 13.71  1.2795 2.2324 155.7 22.6  37d  99
2026 04 15 22  13 02 04.772   +13 04 09.23  1.2801 2.2329 155.6 22.6  37d  99
2026 04 15 23  13 02 01.058   +13 04 04.71  1.2807 2.2334 155.6 22.6  37d  99
2026 04 16 00  13 01 57.348   +13 04 00.16  1.2813 2.2339 155.6 22.6  37d  99
2026 04 16 01  13 01 53.642   +13 03 55.59  1.2819 2.2343 155.6 22.6  37d  99
2026 04 16 02  13 01 49.941   +13 03 50.99  1.2825 2.2348 155.5 22.6  37d  99
2026 04 16 03  13 01 46.243   +13 03 46.36  1.2831 2.2353 155.5 22.6  37d  99
2026 04 16 04  13 01 42.550   +13 03 41.70  1.2837 2.2358 155.5 22.6  37d  99
2026 04 16 05  13 01 38.862   +13 03 37.02  1.2843 2.2362 155.4 22.6  37d  99
2026 04 16 06  13 01 35.177   +13 03 32.30  1.2849 2.2367 155.4 22.6  37d  99
2026 04 16 07  13 01 31.497   +13 03 27.56  1.2856 2.2372 155.4 22.6  37d  99
2026 04 16 08  13 01 27.821   +13 03 22.79  1.2862 2.2377 155.3 22.6  37d  99
2026 04 16 09  13 01 24.149   +13 03 18.00  1.2868 2.2381 155.3 22.6  37d  99
2026 04 16 10  13 01 20.482   +13 03 13.17  1.2874 2.2386 155.3 22.6  37d  99
2026 04 16 11  13 01 16.818   +13 03 08.32  1.2880 2.2391 155.2 22.6  37d  99
2026 04 16 12  13 01 13.159   +13 03 03.44  1.2886 2.2396 155.2 22.6  37d  99
2026 04 16 13  13 01 09.505   +13 02 58.53  1.2892 2.2400 155.2 22.6  37d  99
2026 04 16 14  13 01 05.854   +13 02 53.59  1.2898 2.2405 155.1 22.6  37d  99
2026 04 16 15  13 01 02.208   +13 02 48.63  1.2904 2.2410 155.1 22.6  37d  99
2026 04 16 16  13 00 58.566   +13 02 43.64  1.2910 2.2415 155.1 22.6  37d  99
2026 04 16 17  13 00 54.929   +13 02 38.62  1.2916 2.2419 155.1 22.6  37d  99
2026 04 16 18  13 00 51.295   +13 02 33.57  1.2923 2.2424 155.0 22.6  37d  99
2026 04 16 19  13 00 47.666   +13 02 28.50  1.2929 2.2429 155.0 22.6  37d  99
2026 04 16 20  13 00 44.042   +13 02 23.39  1.2935 2.2434 155.0 22.6  38d  99
2026 04 16 21  13 00 40.421   +13 02 18.26  1.2941 2.2438 154.9 22.6  38d  99
2026 04 16 22  13 00 36.805   +13 02 13.11  1.2947 2.2443 154.9 22.6  38d  99
2026 04 16 23  13 00 33.193   +13 02 07.92  1.2953 2.2448 154.9 22.6  38d  99
2026 04 17 00  13 00 29.586   +13 02 02.71  1.2959 2.2453 154.8 22.6  38d  99
2026 04 17 01  13 00 25.982   +13 01 57.47  1.2965 2.2457 154.8 22.6  38d  99
2026 04 17 02  13 00 22.383   +13 01 52.21  1.2972 2.2462 154.8 22.6  38d  99
2026 04 17 03  13 00 18.788   +13 01 46.91  1.2978 2.2467 154.7 22.6  38d  99
2026 04 17 04  13 00 15.198   +13 01 41.59  1.2984 2.2472 154.7 22.6  38d  99
2026 04 17 05  13 00 11.612   +13 01 36.24  1.2990 2.2476 154.7 22.6  38d  99
2026 04 17 06  13 00 08.030   +13 01 30.87  1.2996 2.2481 154.6 22.6  38d  99
2026 04 17 07  13 00 04.452   +13 01 25.46  1.3002 2.2486 154.6 22.6  38d  99
2026 04 17 08  13 00 00.879   +13 01 20.03  1.3009 2.2491 154.6 22.6  38d  99
2026 04 17 09  12 59 57.310   +13 01 14.58  1.3015 2.2495 154.5 22.6  38d  99
2026 04 17 10  12 59 53.746   +13 01 09.09  1.3021 2.2500 154.5 22.6  38d  99
2026 04 17 11  12 59 50.185   +13 01 03.58  1.3027 2.2505 154.5 22.6  38d  99
2026 04 17 12  12 59 46.629   +13 00 58.04  1.3033 2.2510 154.4 22.6  38d  99
2026 04 17 13  12 59 43.077   +13 00 52.48  1.3039 2.2514 154.4 22.6  38d  99
2026 04 17 14  12 59 39.530   +13 00 46.89  1.3046 2.2519 154.4 22.6  38d  99
2026 04 17 15  12 59 35.987   +13 00 41.27  1.3052 2.2524 154.3 22.6  38d  99
2026 04 17 16  12 59 32.448   +13 00 35.62  1.3058 2.2528 154.3 22.6  38d  99
2026 04 17 17  12 59 28.914   +13 00 29.95  1.3064 2.2533 154.3 22.6  38d  99
2026 04 17 18  12 59 25.383   +13 00 24.25  1.3071 2.2538 154.2 22.6  38d  99